CW0608 Weather Reports


Display with metric or nautical units.
time (UTC)temp
F
wind
direction
speed
MPH
gust
MPH
rain 1hr
in
rain 24hr
in
rain mn
in
humidity
%
barometer
mb
20260906075805 62 298 0.0 0.0 0.00 0.00 0.00 94 1013.4
20260906075306 61 298 0.0 0.0 0.00 0.00 0.00 94 1013.5
20260906073804 61 298 0.0 0.0 0.00 0.00 0.00 94 1013.3
20260906072804 61 298 0.0 0.0 0.00 0.00 0.00 94 1013.3
20260906070804 61 298 0.0 0.0 0.00 0.00 0.00 94 1013.4
20260906065805 62 298 0.0 0.0 0.00 0.00 0.00 95 1013.5
20260906064804 62 298 0.0 0.0 0.00 0.00 0.00 95 1013.5
20260906064305 61 298 0.0 0.0 0.00 0.00 0.00 95 1013.6
20260906062306 62 298 0.0 0.0 0.00 0.00 0.00 95 1013.5
20260906061304 62 298 0.0 0.0 0.00 0.00 0.00 95 1013.6
20260906060805 62 298 0.0 0.0 0.00 0.00 0.00 95 1013.6
20260906054804 62 298 0.0 0.0 0.00 0.00 0.00 96 1013.8
20260906053305 63 298 0.0 0.0 0.00 0.00 0.00 96 1013.7
20260906052306 63 298 0.0 0.0 0.00 0.00 0.00 96 1013.9
20260906050305 63 298 0.0 0.0 0.00 0.00 0.00 96 1014.0
20260906044305 63 298 0.0 0.0 0.00 0.00 0.00 96 1014.1
20260906043806 63 298 0.0 0.0 0.00 0.00 0.00 96 1014.0
20260906043304 63 298 0.0 0.0 0.00 0.00 0.00 96 1014.1
20260906042805 63 298 0.0 1.0 0.00 0.00 0.00 96 1014.1
20260906035806 64 298 0.0 1.0 0.00 0.00 0.00 95 1014.0
20260906035306 64 298 0.0 1.0 0.00 0.00 0.00 95 1014.1
20260906034306 64 298 0.0 1.0 0.00 0.00 0.00 95 1014.2
20260906033305 64 298 0.0 1.0 0.00 0.00 0.00 95 1014.2
20260906032306 64 298 0.0 1.0 0.00 0.00 0.00 96 1014.1
20260906031305 64 298 0.0 1.0 0.00 0.00 0.00 95 1014.1
20260906030805 64 298 0.0 1.0 0.00 0.00 0.00 95 1014.0
20260906030305 64 298 0.0 0.0 0.00 0.00 0.00 95 1013.9
20260906025806 65 298 0.0 1.0 0.00 0.00 0.00 95 1014.0
20260906025306 65 298 0.0 1.0 0.00 0.00 0.00 95 1014.0
20260906024305 65 298 0.0 1.0 0.00 0.00 0.00 95 1014.1
20260906023805 65 298 0.0 1.0 0.00 0.00 0.00 95 1014.0
20260906023305 65 298 0.0 1.0 0.00 0.00 0.00 95 1014.0
20260906022804 65 298 0.0 1.0 0.00 0.00 0.00 95 1013.9
20260906022307 65 298 0.0 0.0 0.00 0.00 0.00 95 1014.0
20260906015306 65 298 0.0 0.0 0.00 0.00 0.00 95 1013.4
20260906014805 66 298 0.0 0.0 0.00 0.00 0.00 94 1013.3
20260906013806 66 298 0.0 0.0 0.00 0.00 0.00 94 1013.3
20260906013305 66 298 0.0 0.0 0.00 0.00 0.00 94 1013.3
20260906012804 66 298 0.0 0.0 0.00 0.00 0.00 94 1013.3
20260906005306 67 298 0.0 0.0 0.00 0.00 0.00 92 1013.1
20260906002306 68 298 0.0 0.0 0.00 0.00 0.00 91 1012.8
20260906001804 69 298 0.0 0.0 0.00 0.00 0.00 90 1012.8
20260906001305 69 298 0.0 0.0 0.00 0.00 0.00 89 1012.8
20260906000805 69 298 0.0 0.0 0.00 0.00 0.00 88 1012.7
20260905235805 70 298 0.0 0.0 0.00 0.00 0.00 86 1012.6
20260905235306 70 298 0.0 0.0 0.00 0.00 0.00 86 1012.5
20260905234305 71 298 0.0 0.0 0.00 0.00 0.00 84 1012.5
20260905233806 71 298 0.0 0.0 0.00 0.00 0.00 82 1012.4
20260905233304 72 298 0.0 0.0 0.00 0.00 0.00 82 1012.3
20260905232306 72 298 0.0 0.0 0.00 0.00 0.00 78 1012.2
20260905225804 75 298 0.0 0.0 0.00 0.00 0.00 74 1012.2
20260905225306 75 298 0.0 0.0 0.00 0.00 0.00 74 1012.2
20260905224804 75 298 0.0 0.0 0.00 0.00 0.00 72 1012.3
20260905224306 75 298 0.0 2.0 0.00 0.00 0.00 74 1012.2
20260905223805 76 299 0.0 3.0 0.00 0.00 0.00 72 1012.2
20260905223304 76 299 1.0 3.0 0.00 0.00 0.00 72 1012.2
20260905222306 76 300 1.0 3.0 0.00 0.00 0.00 71 1012.1
20260905221804 77 314 0.0 2.0 0.00 0.00 0.00 72 1012.1
20260905221304 77 324 1.0 3.0 0.00 0.00 0.00 69 1011.9
20260905220304 78 329 0.0 2.0 0.00 0.00 0.00 69 1011.8
20260905215306 79 0 1.0 6.0 0.00 0.00 0.00 66 1011.6
20260905213805 79 347 1.0 3.0 0.00 0.00 0.00 67 1011.5
20260905211804 79 78 2.0 5.0 0.00 0.00 0.00 71 1011.3
20260905210304 79 339 1.0 3.0 0.00 0.00 0.00 69 1011.3
20260905204806 78 108 2.0 3.0 0.00 0.00 0.00 70 1011.4
20260905204305 79 38 1.0 3.0 0.00 0.00 0.00 72 1011.5
20260905203805 79 41 1.0 3.0 0.00 0.00 0.00 71 1011.4
20260905203304 79 33 2.0 3.0 0.00 0.00 0.00 71 1011.5
20260905202306 80 63 2.0 5.0 0.00 0.00 0.00 68 1011.4
20260905201305 82 42 5.0 8.0 0.00 0.00 0.00 66 1011.4
20260905200304 81 13 2.0 7.0 0.00 0.00 0.00 66 1011.5
20260905195804 81 25 2.0 7.0 0.00 0.00 0.00 66 1011.5
20260905194805 81 334 2.0 8.0 0.00 0.00 0.00 65 1011.5
20260905194305 81 296 4.0 8.0 0.00 0.00 0.00 64 1011.5
20260905192805 80 79 3.0 10.0 0.00 0.00 0.00 67 1011.7
20260905191804 81 288 6.0 12.0 0.00 0.00 0.00 66 1011.7
20260905190304 79 321 1.0 6.0 0.00 0.00 0.00 68 1012.0
20260905185806 79 266 1.0 7.0 0.00 0.00 0.00 69 1012.1
20260905184305 80 36 3.0 5.0 0.00 0.00 0.00 68 1012.3
20260905182804 81 57 3.0 6.0 0.00 0.00 0.00 66 1012.4
20260905182306 81 7 1.0 6.0 0.00 0.00 0.00 68 1012.3
20260905181804 80 258 3.0 6.0 0.00 0.00 0.00 70 1012.5
20260905181304 79 358 2.0 5.0 0.00 0.00 0.00 71 1012.5
20260905180304 78 299 2.0 6.0 0.00 0.00 0.00 69 1012.5
20260905175804 79 34 2.0 7.0 0.00 0.00 0.00 71 1012.6
20260905175306 79 54 2.0 7.0 0.00 0.00 0.00 70 1012.6
20260905174805 79 27 2.0 7.0 0.00 0.00 0.00 71 1012.5
20260905171806 78 358 0.0 3.0 0.00 0.00 0.00 68 1012.9
20260905171306 79 344 1.0 3.0 0.00 0.00 0.00 71 1013.0
20260905170305 77 311 1.0 5.0 0.00 0.00 0.00 73 1013.1
20260905164305 77 342 1.0 3.0 0.00 0.00 0.00 74 1013.1
20260905163804 78 355 1.0 3.0 0.00 0.00 0.00 76 1013.2
20260905161804 77 327 2.0 7.0 0.00 0.00 0.00 70 1013.4
20260905160807 78 288 2.0 6.0 0.00 0.00 0.00 70 1013.5
20260905160305 77 270 2.0 6.0 0.00 0.00 0.00 71 1013.6
20260905154304 77 60 0.0 3.0 0.00 0.00 0.00 72 1013.7
20260905153304 76 215 1.0 3.0 0.00 0.00 0.00 75 1013.7
20260905151806 75 299 0.0 0.0 0.00 0.00 0.00 80 1013.6
20260905150804 75 299 0.0 3.0 0.00 0.00 0.00 80 1013.7
20260905150304 75 299 1.0 3.0 0.00 0.00 0.00 76 1013.7
20260905145806 75 303 0.0 3.0 0.00 0.00 0.00 76 1013.7
20260905143805 75 87 2.0 5.0 0.00 0.00 0.00 77 1013.4
20260905143304 75 103 2.0 5.0 0.00 0.00 0.00 78 1013.4
20260905142805 75 37 3.0 6.0 0.00 0.00 0.00 79 1013.3
20260905142306 75 51 3.0 6.0 0.00 0.00 0.00 79 1013.3
20260905141806 75 57 2.0 12.0 0.00 0.00 0.00 79 1013.3
20260905140805 75 33 4.0 12.0 0.00 0.00 0.00 78 1013.2
20260905140310 75 49 2.0 5.0 0.00 0.00 0.00 80 1013.2
20260905135306 75 29 2.0 9.0 0.00 0.00 0.00 80 1013.2
20260905133804 75 341 2.0 9.0 0.00 0.00 0.00 79 1013.2
20260905132305 75 32 2.0 8.0 0.00 0.00 0.00 81 1013.2
20260905125804 75 30 2.0 8.0 0.00 0.00 0.00 85 1012.9
20260905124805 74 54 2.0 6.0 0.00 0.00 0.00 86 1012.8
20260905124305 74 39 2.0 7.0 0.00 0.00 0.00 87 1012.7
20260905123806 74 51 2.0 7.0 0.00 0.00 0.00 89 1012.8
20260905123304 73 62 1.0 7.0 0.00 0.00 0.00 90 1012.9
20260905122806 73 59 0.0 3.0 0.00 0.00 0.00 91 1012.8
20260905121805 72 68 0.0 3.0 0.00 0.00 0.00 92 1012.8
20260905120805 72 78 1.0 3.0 0.00 0.00 0.00 93 1012.7
20260905115805 72 296 1.0 2.0 0.00 0.00 0.00 94 1012.8
20260905114304 71 5 1.0 3.0 0.00 0.00 0.00 96 1012.7
20260905113804 71 289 0.0 0.0 0.00 0.00 0.00 97 1012.6
20260905113304 71 289 0.0 0.0 0.00 0.00 0.00 97 1012.6
20260905112805 71 289 0.0 0.0 0.00 0.00 0.00 97 1012.5
20260905111804 71 289 0.0 0.0 0.00 0.00 0.00 97 1012.4
20260905110805 71 289 0.0 0.0 0.00 0.00 0.00 97 1012.2
20260905102806 71 289 0.0 0.0 0.00 0.01 0.00 97 1011.8
20260905101804 71 291 0.0 0.0 0.00 0.01 0.00 97 1011.8
20260905101304 71 291 0.0 0.0 0.00 0.01 0.00 97 1011.7
20260905100805 71 291 0.0 0.0 0.00 0.01 0.00 97 1011.7
20260905095306 72 291 0.0 2.0 0.00 0.01 0.00 97 1011.8
20260905094305 72 291 0.0 2.0 0.00 0.01 0.00 97 1011.5
20260905093304 72 291 0.0 2.0 0.00 0.01 0.00 96 1011.4
20260905092804 72 291 0.0 2.0 0.00 0.01 0.00 96 1011.5
20260905092306 72 291 1.0 2.0 0.00 0.01 0.00 96 1011.5
20260905091804 72 291 0.0 2.0 0.00 0.01 0.00 96 1011.4
20260905091304 72 291 0.0 3.0 0.00 0.01 0.00 95 1011.3
20260905085306 72 298 0.0 3.0 0.00 0.01 0.00 95 1011.3
20260905084304 72 308 0.0 3.0 0.00 0.01 0.00 95 1011.3
20260905083806 73 308 1.0 3.0 0.00 0.01 0.00 95 1011.3
20260905082307 73 313 1.0 5.0 0.00 0.01 0.00 95 1011.3
20260905081805 73 271 1.0 6.0 0.00 0.01 0.00 95 1011.4
20260905081305 73 281 0.0 6.0 0.00 0.01 0.00 95 1011.4
20260905080805 73 276 2.0 5.0 0.00 0.01 0.00 95 1011.3